Simultaneous Nadir Overpasses (SNOs) Predictions

Prediction of SNOs between AQUA and METOP-B Satellite Orbit:

Table of predicted SNOs for the next 14.0 days since TLE Epoch: 3/12/2022
Index Date (AQUA) Time (AQUA) Lat,Lon (AQUA) SZA (AQUA ) Date (METOP-B) Time (METOP-B) Lat,Lon (METOP-B) SZA (METOP-B ) Distance(km) Time Diff (sec)
1 03/14/2022 06:13:49 73.76, 81.16 76.34 03/14/2022 06:12:37 73.69, 80.65 76.31 18.08 72
2 03/14/2022 07:03:17 -73.91,-111.51 103.52 03/14/2022 07:03:15 -73.89,-111.56 103.54 2.42 2
3 03/14/2022 07:52:46 73.98, 55.96 76.55 03/14/2022 07:53:53 73.97, 55.96 76.53 1.45 67
4 03/17/2022 01:47:57 73.88, 147.40 75.34 03/17/2022 01:46:54 73.89, 147.52 75.36 3.75 63
5 03/17/2022 02:37:23 -73.91, -45.03 104.64 03/17/2022 02:37:35 -73.94, -45.04 104.61 2.97 12
6 03/17/2022 03:26:58 74.30, 121.71 75.77 03/17/2022 03:28:07 74.31, 123.22 75.72 45.40 69
7 03/19/2022 21:22:02 73.86,-146.07 74.21 03/19/2022 21:21:15 73.88,-146.09 74.24 2.29 47
8 03/19/2022 22:11:29 -73.94, 21.39 105.72 03/19/2022 22:11:56 -73.93, 21.35 105.74 1.81 27
9 03/22/2022 16:56:06 73.87, -79.61 73.10 03/22/2022 16:55:35 73.87, -79.72 73.11 3.38 31
10 03/22/2022 17:45:33 -73.95, 87.86 106.83 03/22/2022 17:46:15 -73.97, 87.85 106.82 1.74 42
11 03/25/2022 11:40:35 -73.46,-179.86 108.45 03/25/2022 11:39:26 -73.37, 178.22 108.45 61.90 69
12 03/25/2022 12:30:11 73.91, -13.21 72.03 03/25/2022 12:29:55 73.90, -13.23 72.02 1.66 16
13 03/25/2022 13:19:38 -73.99, 154.27 107.91 03/25/2022 13:20:35 -74.00, 154.33 107.91 2.26 57



Historial Predications of SNOs between AQUA and METOP-B
